Wind_Speed
47 42 39 37 36 36 38 39 40 40 41 42 43 42 41 40 40 39 40 40 40 40 41 42 42 42 41 43 44 46 47 48 49 49 50 51 51 52 53 53 54 55 56 57 58 59 60 61 62 63 64 64 65 66 66 67 68 69 69 70 72 73 73 72 71 71 71 73 74 75 76 77 78 79 79 80 81 82 82 83 82 81 81 81 83 86 88 89
49 46 42 40 38 37 37 38 40 41 42 42 43 44 44 43 42 42 42 42 43 43 43 44 45 44 44 44 45 46 48 49 50 51 51 52 53 54 54 55 56 57 59 60 62 63 64 65 65 66 66 67 68 68 68 68 68 69 69 70 72 72 72 71 71 71 72 74 76 77 79 80 81 82 83 84 85 86 87 87 85 85 85 86 87 89 91 92
52 49 46 44 41 39 38 38 39 41 42 42 43 44 45 46 45 45 45 46 46 47 47 47 48 49 49 49 49 50 50 51 52 52 53 55 57 57 58 59 59 61 62 63 64 66 66 66 66 66 67 67 68 68 68 68 68 68 69 71 72 72 73 73 73 74 76 78 80 82 83 85 85 86 87 87 89 90 91 92 90 90 90 90 91 93 95 96
54 52 50 47 45 43 41 40 40 40 41 42 42 43 45 46 46 47 47 48 49 49 50 50 51 52 53 53 53 53 53 54 54 55 55 57 59 61 62 63 64 64 63 63 64 64 64 65 65 66 66 67 67 68 68 68 68 69 71 73 74 75 77 78 78 79 81 82 84 86 87 89 90 91 92 92 93 94 96 96 96 95 95 94 95 97 98 99
56 55 53 50 48 46 44 43 42 42 42 42 43 44 45 46 46 46 47 48 49 50 50 51 52 52 53 53 54 55 55 56 57 57 58 59 60 62 63 64 64 64 63 63 63 64 65 66 67 67 68 69 70 70 71 72 73 74 76 78 79 80 82 84 85 85 87 88 89 91 93 95 96 97 97 97 97 98 100 101 100 99 99 98 99 100 100 101
56 56 55 53 51 49 47 46 46 45 44 45 45 46 46 46 46 47 48 49 49 50 51 51 51 51 52 52 53 54 56 57 58 58 59 60 62 64 65 66 66 67 67 67 68 69 70 72 72 73 74 75 76 77 77 78 79 80 82 84 84 86 88 89 91 91 92 93 95 97 98 100 100 101 100 100 100 101 102 103 103 102 102 101 102 102 103 103
53 55 55 55 54 53 51 49 48 48 47 47 47 48 48 47 48 48 49 50 51 51 52 53 54 54 55 55 54 55 56 57 59 60 61 62 63 65 67 69 70 71 72 73 74 76 77 78 79 80 81 82 82 83 84 84 85 86 87 89 89 90 93 95 96 97 98 99 100 101 102 102 102 102 102 102 102 102 103 104 105 105 104 104 105 105 105 106
47 50 52 54 54 54 54 53 51 51 50 50 50 50 50 50 50 50 51 51 52 53 53 54 55 57 58 58 59 59 59 59 60 60 62 63 65 66 67 69 70 71 73 74 76 77 79 80 82 83 84 85 86 87 88 88 89 89 91 92 93 94 96 98 100 101 102 102 102 103 103 103 104 104 104 104 105 106 106 107 108 108 109 109 109 109 109 109
40 43 46 49 51 52 53 54 54 53 53 53 53 53 53 53 53 53 54 54 54 55 55 56 57 58 59 60 61 62 63 64 63 64 64 65 67 68 69 70 71 72 73 75 76 77 79 81 82 83 84 86 87 88 89 89 90 91 92 94 95 97 98 98 100 102 103 104 104 105 105 105 106 107 107 108 109 109 110 110 111 111 112 113 113 113 112 111
35 37 39 42 45 47 50 51 53 54 54 55 55 56 56 56 56 56 57 58 58 58 58 59 59 60 61 61 63 64 66 67 67 69 69 70 71 72 73 74 75 76 77 79 80 81 83 84 86 87 88 89 90 91 92 93 93 95 96 97 99 100 101 102 103 105 106 107 108 108 109 109 110 110 110 111 111 111 111 111 111 112 112 113 113 112 112 111
31 32 34 36 38 40 43 45 47 49 51 53 54 55 56 57 57 58 58 59 60 61 61 62 62 63 64 65 66 67 68 70 71 72 73 74 76 77 78 79 80 81 81 83 84 85 87 88 90 91 91 93 94 95 96 97 97 98 99 100 101 103 104 105 106 107 108 108 109 110 110 110 110 110 109 109 109 109 109 108 108 108 108 109 109 109 108 107
27 28 29 31 32 34 36 38 41 43 45 47 49 50 52 53 54 55 56 57 58 59 61 62 63 64 65 66 67 68 69 70 72 73 74 75 76 77 79 80 80 81 82 84 85 87 88 89 91 92 92 93 94 96 96 96 96 97 97 97 99 101 102 103 104 104 105 105 105 105 105 104 104 104 104 103 103 102 102 103 103 103 103 104 104 104 104 103
25 25 26 28 29 30 32 34 35 37 39 41 43 45 46 48 49 51 52 53 54 55 56 57 59 60 61 62 63 65 67 68 69 70 71 72 73 74 75 76 77 78 79 81 82 84 86 87 89 89 90 91 91 92 92 92 92 92 92 93 94 97 98 99 99 99 100 100 100 99 99 99 98 98 98 98 98 98 98 98 98 98 98 99 99 99 100 100
23 23 24 26 27 28 29 31 32 34 35 37 38 40 41 43 44 45 46 48 49 50 51 52 53 54 56 57 58 60 61 63 64 64 65 66 67 68 69 70 72 73 74 76 78 81 82 83 84 85 86 86 87 88 88 87 87 88 89 90 91 93 95 95 96 96 96 96 96 96 96 95 95 95 94 94 94 94 95 94 95 95 95 96 96 97 97 97
22 23 23 25 26 27 28 29 30 31 33 34 35 36 38 39 40 41 42 43 44 45 47 48 49 50 51 52 54 55 56 57 58 59 60 61 62 63 64 66 67 69 71 73 75 77 79 80 81 81 82 84 84 85 85 84 85 87 88 89 89 90 91 92 93 94 94 94 94 94 93 92 92 92 92 92 92 92 92 92 92 92 92 92 93 93 94 94
21 22 23 24 25 26 27 28 29 30 31 32 33 33 35 35 36 37 38 39 41 42 43 44 45 46 47 48 50 50 52 53 55 56 57 58 60 61 62 64 66 68 69 72 73 75 77 78 79 80 81 82 83 83 82 83 84 86 86 86 87 88 89 90 90 91 91 92 92 91 91 90 90 90 90 90 90 89 89 88 87 87 87 87 87 88 89 90
21 22 22 23 24 25 25 26 27 27 28 29 29 30 31 32 33 33 34 36 37 38 40 41 42 43 44 46 47 48 50 52 53 55 56 58 59 61 63 65 67 69 70 72 73 75 76 77 78 79 81 81 81 80 80 81 82 83 84 84 85 86 87 88 88 88 88 89 89 89 89 88 88 88 87 86 85 84 83 82 81 81 81 81 82 82 83 84
21 21 22 22 23 23 24 24 25 25 26 26 27 27 28 29 30 31 32 34 35 37 39 40 42 43 44 46 48 49 51 53 54 55 57 58 60 62 64 66 68 70 71 72 73 74 75 76 77 78 79 79 78 79 78 79 80 80 81 82 82 83 84 85 85 85 86 86 86 86 86 85 84 83 82 80 78 77 77 76 76 76 76 77 77 78 79 80
21 21 21 22 22 22 23 23 24 24 25 25 26 27 28 29 31 32 34 35 37 39 41 42 44 45 46 48 50 51 52 53 55 56 57 59 61 64 66 67 69 70 70 71 72 73 73 74 75 76 76 76 76 76 76 76 77 78 79 79 80 81 82 83 82 82 82 81 81 80 80 79 79 78 76 75 73 72 72 72 73 73 74 74 74 75 76 77
20 21 22 22 22 22 23 23 24 24 25 26 27 28 29 31 32 34 35 37 39 41 42 44 45 46 48 49 50 51 52 54 55 57 59 61 63 64 66 66 67 67 68 69 70 71 71 72 73 74 74 75 75 74 74 74 75 75 76 76 77 77 78 78 77 76 76 75 74 73 73 74 74 73 72 71 70 70 70 70 71 72 72 73 73 74 74 75
21 22 23 23 23 24 24 24 25 26 27 27 29 30 31 32 33 34 36 37 38 40 41 43 44 46 48 49 51 52 53 55 56 58 60 61 62 63 64 65 66 67 67 68 69 70 71 71 72 72 73 73 73 73 73 72 72 72 71 71 71 71 72 71 70 70 70 70 69 68 69 70 70 69 69 68 68 68 69 70 70 71 72 73 74 74 75 76
22 23 23 24 25 25 26 26 27 28 29 29 30 31 31 32 33 35 37 37 38 39 40 42 44 46 48 50 51 52 54 56 57 58 60 60 62 63 64 65 66 67 68 69 69 70 70 71 71 71 72 72 71 71 69 68 67 66 65 65 65 65 66 65 64 65 65 66 65 65 66 66 65 65 65 66 67 67 68 69 70 71 72 73 74 76 77 78
21 22 23 24 25 26 27 28 28 29 29 30 30 31 31 33 35 36 37 38 39 41 42 44 46 48 49 50 51 53 54 56 57 59 60 61 63 64 65 67 68 68 69 69 69 70 70 70 70 70 69 68 67 66 64 62 61 61 60 60 60 61 61 60 60 61 62 62 62 63 64 63 62 62 63 64 65 65 66 67 69 70 71 73 75 77 78 79
20 21 22 24 25 26 27 28 28 28 29 30 31 32 33 34 35 36 37 38 39 41 42 44 46 48 49 50 51 53 54 56 58 60 61 63 64 65 66 68 68 69 69 69 69 69 68 68 66 65 64 62 61 60 59 57 57 57 57 57 57 58 58 58 59 60 61 61 62 65 65 62 62 64 64 64 65 65 65 67 68 69 71 73 75 76 78 80
21 22 23 24 25 26 27 27 28 29 29 30 31 32 33 33 34 35 36 38 40 41 43 44 46 47 49 51 52 54 56 58 60 61 63 64 65 66 66 67 67 68 68 67 66 65 63 62 60 59 58 57 56 55 55 54 54 54 55 55 56 57 58 59 59 61 61 62 63 65 66 64 64 65 65 65 65 66 67 68 69 70 72 74 75 77 78 80
21 22 23 24 26 26 27 27 28 29 29 29 30 31 32 33 34 36 38 40 41 43 45 46 48 49 51 53 55 56 58 60 61 62 63 64 65 65 66 66 66 65 64 62 60 58 57 56 55 54 53 53 53 52 52 52 53 54 55 56 57 58 59 60 61 62 62 63 64 65 67 66 65 65 66 66 66 67 68 69 70 72 74 76 77 78 79 80
21 22 24 25 25 26 26 27 28 28 29 29 31 32 33 34 36 38 40 41 44 46 47 49 50 52 53 55 57 58 59 60 61 62 63 63 63 63 62 61 60 58 56 54 53 53 52 52 52 52 52 52 52 52 53 53 54 55 56 58 59 60 61 61 63 63 64 64 64 65 68 69 66 65 65 66 67 68 69 71 72 74 76 77 78 80 81 82
23 24 25 26 25 25 26 27 28 29 30 31 32 34 35 37 38 40 42 43 46 49 50 51 53 54 55 56 58 58 59 59 59 59 59 58 57 56 54 53 52 52 51 50 51 51 52 52 52 52 53 53 53 54 54 55 56 57 58 59 60 61 62 63 64 65 66 66 65 67 70 71 68 66 66 67 68 69 71 73 74 76 77 79 80 81 82 83
25 26 26 26 26 26 27 28 29 30 32 33 35 37 38 40 41 43 45 46 49 51 52 53 55 55 55 56 57 57 56 55 54 53 52 51 51 50 50 49 50 50 50 50 51 52 53 53 54 54 54 54 55 56 56 57 58 59 60 61 62 63 64 65 66 67 68 68 67 70 73 73 71 68 68 69 70 71 73 74 76 77 79 80 81 82 83 84
28 28 29 29 29 30 30 31 32 34 35 37 39 40 42 43 44 45 47 49 51 53 54 55 55 55 55 55 54 53 52 51 50 50 50 50 50 50 50 50 50 51 51 52 52 53 54 55 55 56 56 56 57 58 59 59 60 61 62 63 64 65 66 67 68 69 70 69 69 72 74 74 73 70 69 71 72 73 75 76 77 78 79 81 82 83 84 85
31 31 32 32 33 34 35 36 37 38 39 41 42 43 44 45 46 48 50 51 53 54 55 54 54 55 54 54 52 51 50 51 50 50 50 50 50 51 51 51 52 52 53 53 54 54 55 56 57 57 58 59 60 60 61 62 63 64 65 66 66 67 68 68 68 70 71 70 71 72 74 75 74 71 71 73 74 75 76 77 78 79 80 82 82 83 84 85
35 35 35 36 37 38 39 40 41 42 43 44 44 45 46 48 49 50 51 52 53 54 54 54 54 53 53 52 51 50 50 50 51 50 51 51 51 52 52 52 53 53 54 55 55 57 57 58 58 58 59 60 60 61 62 63 64 65 66 67 67 68 68 67 68 69 70 70 71 72 73 73 72 72 72 73 74 75 76 77 79 80 81 82 83 84 85 86
38 39 39 40 40 41 41 42 43 44 45 46 47 48 48 49 50 51 52 52 53 53 54 54 53 52 51 50 50 50 51 51 51 51 52 52 52 53 53 53 54 54 55 55 56 57 59 60 60 60 60 60 60 61 62 62 63 64 64 65 66 67 66 65 66 67 68 68 68 69 71 71 71 72 73 73 73 74 75 77 78 79 80 81 82 82 84 85
41 41 42 42 43 43 44 45 45 46 47 48 49 49 50 50 51 51 52 52 53 53 53 53 51 51 50 50 51 51 51 52 52 52 53 53 54 54 54 54 55 55 55 55 55 56 58 60 60 59 59 59 59 60 60 61 61 62 63 63 64 65 64 63 63 64 65 65 66 67 68 68 69 71 71 72 73 73 74 75 76 77 77 79 80 81 82 83
43 43 44 44 45 45 46 47 48 48 49 50 50 50 50 51 51 52 52 53 53 52 52 51 50 50 50 50 51 51 52 53 53 54 54 54 55 55 55 55 54 54 54 54 54 54 55 58 58 57 57 57 57 58 58 59 60 60 61 62 62 63 63 62 62 62 63 63 63 65 66 67 68 69 70 72 72 73 73 74 75 76 77 78 79 81 82 83
44 45 45 45 46 47 48 48 49 50 50 50 50 50 50 51 51 52 52 52 52 51 50 50 50 50 51 51 51 52 52 53 54 54 54 54 54 54 54 54 53 53 53 52 52 51 52 55 57 55 55 55 55 57 57 58 59 59 59 60 61 62 62 63 62 62 63 63 62 64 66 67 69 70 71 73 74 74 75 76 77 78 79 80 81 83 84 86
45 45 45 46 47 48 49 50 50 50 50 50 50 50 50 51 51 51 51 51 50 50 50 50 50 51 52 52 53 53 53 53 53 53 53 52 52 52 51 51 51 50 50 50 50 49 49 52 56 55 54 54 55 56 56 57 58 59 59 60 61 62 63 63 63 63 64 64 64 65 66 69 71 73 74 75 76 78 79 79 80 81 83 84 85 87 88 89
45 45 46 46 47 49 50 50 50 49 49 49 49 50 50 51 51 51 50 49 49 49 49 50 51 51 52 53 53 53 52 52 51 50 50 50 50 50 49 49 49 48 49 49 49 49 48 49 54 55 54 54 56 56 57 58 58 59 60 61 62 63 64 65 67 67 67 68 68 68 69 72 74 76 77 78 79 81 82 83 84 86 87 89 90 91 92 94
45 45 46 48 49 49 49 49 48 48 49 49 50 50 50 50 49 49 48 48 49 49 50 50 51 51 51 51 51 50 50 49 48 48 48 48 48 48 48 48 48 48 48 49 49 49 49 49 52 55 55 55 57 58 58 60 61 62 63 64 65 66 67 68 70 71 72 72 72 71 71 74 78 79 80 81 83 84 86 87 88 90 91 93 94 96 97 98
45 46 48 48 48 48 48 48 48 49 49 49 49 49 49 48 48 48 48 49 49 50 50 50 50 49 49 48 48 47 47 47 46 47 47 47 47 48 48 49 49 49 49 50 50 51 51 51 53 56 57 58 59 60 61 62 63 65 66 67 68 69 70 70 72 74 76 76 77 76 75 77 81 82 83 85 86 88 90 91 93 94 95 97 98 100 102 103
46 47 47 47 47 47 47 47 48 48 48 48 48 47 47 47 47 48 49 49 49 49 49 48 48 47 46 46 46 46 46 46 46 46 47 48 48 48 49 50 50 51 52 52 53 53 54 54 55 57 59 60 62 63 63 65 66 67 68 69 70 72 73 74 75 77 79 80 82 82 81 82 85 86 87 89 91 92 94 96 97 98 100 101 102 104 106 107
46 46 46 46 46 46 47 47 48 47 47 47 46 46 47 47 48 48 48 48 47 47 46 45 45 45 44 45 45 46 46 47 47 48 48 49 49 50 50 51 52 53 54 54 55 55 55 56 58 59 60 61 63 64 66 67 68 70 71 72 73 75 76 77 78 80 82 84 86 88 87 88 89 91 92 94 95 97 98 100 102 103 104 105 106 108 109 110
45 45 45 46 46 46 47 46 46 46 46 46 46 47 47 47 47 46 45 45 44 44 43 43 44 44 44 45 46 46 47 48 48 49 49 50 50 51 51 52 53 54 55 56 57 57 58 59 60 62 64 65 66 67 69 70 71 73 75 76 77 79 80 82 83 84 86 88 90 91 92 92 93 94 96 98 99 100 101 103 104 105 106 107 108 109 110 110
44 45 45 45 45 45 45 45 45 45 45 45 45 45 45 44 44 43 43 42 42 42 43 43 43 44 45 45 46 47 47 48 48 49 49 50 51 52 53 55 56 57 58 59 60 61 62 63 63 64 66 68 70 72 73 75 77 77 79 80 82 83 84 86 87 88 89 91 93 94 95 95 96 97 98 99 100 101 102 103 104 105 106 106 107 108 109 109
44 44 44 44 44 44 44 44 44 44 43 43 42 42 42 41 41 41 41 41 41 42 42 43 43 44 44 45 46 47 47 48 49 50 51 52 53 55 56 58 59 60 61 63 64 65 66 67 68 68 69 70 72 73 75 77 79 81 82 83 84 86 87 88 89 90 91 92 93 94 94 95 95 96 97 97 98 100 100 101 102 102 103 104 105 105 106 106
43 43 43 43 42 42 42 42 41 41 40 40 40 39 39 39 39 40 40 40 41 41 42 43 43 44 44 45 46 47 48 50 51 52 54 55 56 58 60 61 62 63 64 66 67 68 69 70 71 71 72 73 73 74 75 76 78 79 81 82 83 84 85 86 88 89 89 90 91 91 92 92 93 93 94 95 96 97 98 99 99 100 101 102 102 103 103 104
42 41 41 40 40 40 39 39 38 38 38 38 38 38 38 38 38 39 39 40 40 41 41 42 43 44 45 47 48 50 52 54 55 57 58 59 60 61 62 63 64 65 65 66 67 68 69 70 71 71 72 73 74 74 75 75 76 77 77 78 79 80 82 83 84 85 86 87 87 88 89 90 91 91 92 93 94 95 96 97 98 98 99 100 101 101 102 102
39 39 38 38 37 37 36 36 36 36 36 36 36 37 37 37 38 38 39 39 40 41 41 42 43 45 47 50 52 55 57 58 60 61 61 62 62 63 63 63 64 64 65 65 66 67 67 68 69 70 70 71 72 73 73 74 74 75 75 76 77 78 78 80 81 82 83 84 85 85 86 88 89 90 91 92 93 94 95 96 96 97 98 98 99 99 99 100
36 36 35 35 35 35 34 34 35 35 35 35 36 36 37 37 38 38 39 39 40 41 42 44 46 48 51 54 56 58 59 61 62 62 62 63 63 63 63 63 63 63 63 64 64 65 65 66 67 67 68 69 70 71 71 72 73 73 74 74 75 76 77 78 79 80 81 82 83 83 85 86 87 88 89 90 91 92 92 93 93 94 95 95 96 96 96 97
34 34 34 34 34 33 34 34 34 35 35 36 36 36 37 37 37 37 38 39 40 42 45 47 50 53 55 57 59 60 61 61 61 61 61 61 61 61 61 61 61 61 62 62 62 62 63 63 64 65 65 66 67 68 69 70 71 71 72 73 74 75 76 77 78 79 80 81 82 83 83 84 85 86 87 88 89 89 90 91 91 92 93 93 93 93 93 94
33 33 33 33 33 34 34 34 35 35 35 35 35 35 35 36 37 38 39 41 44 46 49 51 53 55 57 59 60 61 61 61 60 59 59 58 58 58 58 58 59 59 59 59 60 60 60 61 62 63 64 65 66 67 68 69 70 71 72 72 73 74 75 76 77 77 78 79 80 81 82 83 83 84 86 87 87 88 88 89 89 90 90 90 90 90 90 90
32 32 32 33 33 34 34 34 34 34 34 34 34 35 36 37 39 41 43 45 47 49 51 53 55 57 59 60 61 61 60 59 58 57 57 56 56 55 55 55 56 56 57 57 58 59 59 60 61 62 63 64 65 66 67 68 68 69 70 71 71 72 73 74 75 76 76 76 76 77 78 79 80 81 82 83 84 85 85 85 85 86 86 86 86 86 86 86
Wind_Direction
224 223 225 228 233 237 239 238 237 236 236 234 232 232 233 234 236 240 243 245 247 249 250 252 254 255 255 257 259 259 260 259 259 260 261 261 261 261 260 260 261 262 262 263 264 264 264 264 264 265 266 266 266 267 267 268 268 269 269 269 269 269 270 270 271 271 271 272 273 273 273 273 273 274 274 274 274 274 274 273 274 275 276 277 278 278 277 277
227 227 226 226 229 233 237 241 241 242 242 240 237 236 236 237 237 238 239 241 243 245 246 247 249 251 251 252 254 256 259 261 262 262 261 261 261 261 262 262 263 264 264 265 266 266 267 266 266 266 267 267 267 267 268 268 268 269 269 269 269 270 270 271 271 272 272 273 274 274 275 275 275 275 275 276 276 276 276 276 277 277 277 277 277 276 276 277
229 230 230 228 229 230 233 236 240 243 245 245 244 243 242 242 242 243 244 244 245 246 247 248 248 250 252 253 253 253 254 257 260 260 260 259 259 259 259 261 262 263 264 264 265 266 267 267 267 267 268 268 268 268 269 269 269 269 270 269 270 270 271 271 271 272 272 273 274 274 275 275 275 275 275 275 276 276 277 277 277 276 276 276 276 276 277 277
231 233 234 233 231 231 232 233 235 239 242 245 247 248 248 248 248 248 249 250 250 251 252 253 254 255 257 259 259 257 257 257 258 258 259 259 260 260 261 263 264 266 266 266 267 268 268 269 269 269 269 269 269 269 269 270 270 270 270 270 270 270 271 271 271 272 272 272 273 274 274 275 275 275 275 275 276 276 276 277 276 276 276 276 276 277 278 278
232 234 236 237 237 236 235 234 235 236 238 240 243 245 248 250 251 251 252 252 253 254 254 255 257 258 260 261 262 262 262 261 261 260 260 260 261 261 262 263 264 264 265 265 266 266 267 267 268 268 268 268 268 268 268 268 269 269 269 269 270 271 272 272 272 272 272 273 273 274 275 275 275 276 276 276 276 277 277 277 277 277 277 277 277 278 278 278
235 236 238 239 241 241 240 239 238 238 239 240 241 242 245 246 248 249 250 251 252 253 254 255 255 255 257 259 260 261 261 262 262 262 262 262 262 261 261 261 261 262 262 263 264 264 265 266 266 267 267 267 267 268 268 268 268 269 270 270 271 272 273 273 274 273 273 274 274 275 276 276 276 276 276 277 277 277 277 277 278 278 278 278 278 278 278 278
237 238 239 241 243 244 244 244 243 243 243 243 243 244 245 247 247 248 248 249 250 251 252 252 252 253 254 256 257 259 259 259 260 260 260 261 261 261 261 261 262 262 263 263 264 264 265 266 267 267 268 268 268 269 269 269 269 270 271 271 271 272 273 274 274 274 274 274 274 275 275 275 276 276 276 277 277 277 277 277 278 278 278 278 278 278 278 278
240 241 242 244 245 246 247 248 248 248 248 248 248 248 248 249 249 250 250 251 252 252 253 253 253 253 254 255 257 259 260 261 261 261 261 261 262 262 263 263 264 264 265 265 265 266 266 266 267 267 268 268 269 269 269 270 270 271 271 271 272 272 273 273 273 273 274 273 273 274 274 274 275 275 275 275 276 276 276 277 277 277 277 277 277 277 277 277
243 244 245 246 247 248 249 250 251 252 253 253 253 253 253 253 253 254 254 255 255 256 256 257 258 258 258 258 259 260 262 263 264 265 265 264 264 265 265 266 266 267 267 268 268 269 269 269 269 269 269 269 270 270 270 271 271 271 272 272 273 273 273 273 273 273 274 274 274 274 274 274 274 275 275 275 275 275 276 276 276 276 276 276 276 276 275 275
246 247 247 248 249 250 252 253 254 255 256 256 257 258 258 259 259 259 259 259 259 260 260 260 261 262 262 263 263 263 264 264 265 266 266 267 267 267 268 269 269 270 270 271 271 271 272 272 272 272 272 272 272 272 272 272 273 273 273 274 274 274 274 274 274 274 274 274 275 275 275 275 275 275 275 275 275 275 275 275 275 275 275 275 275 275 275 275
250 250 251 251 252 253 253 255 256 257 257 258 259 260 261 262 263 263 264 264 264 264 264 265 265 265 265 266 266 267 267 267 267 268 268 268 269 269 270 271 271 272 273 273 273 273 274 274 274 274 274 274 274 274 274 274 275 274 275 275 275 275 274 274 274 274 274 274 275 275 275 275 275 275 275 275 275 275 275 275 275 274 274 275 275 275 275 275
253 254 254 254 254 254 255 255 256 257 258 259 260 261 262 263 264 265 265 266 267 267 267 268 268 268 268 269 269 269 269 270 270 270 271 271 271 272 272 272 273 273 273 274 274 274 274 274 275 275 275 275 275 275 276 276 276 276 276 276 276 275 275 275 275 275 275 275 275 275 276 276 276 276 276 276 276 275 275 275 275 274 274 274 274 274 274 274
254 255 256 256 256 256 256 257 257 258 259 260 261 261 262 263 264 265 265 266 267 268 268 269 269 270 270 270 270 271 271 271 272 272 273 273 273 273 273 273 273 273 273 273 273 273 274 274 274 275 275 276 276 276 276 277 277 277 277 277 276 276 276 276 276 276 277 277 277 277 277 277 277 277 277 277 276 276 276 275 275 275 275 274 274 274 274 274
253 255 256 257 257 258 259 259 260 261 262 262 263 264 264 265 266 266 267 267 268 268 269 269 270 270 270 271 271 271 272 272 272 273 273 273 273 273 273 273 273 273 273 273 273 274 274 275 275 276 276 277 277 277 277 278 278 278 277 277 277 277 277 278 278 278 278 278 278 278 278 278 278 278 278 277 277 277 276 276 276 275 275 274 274 274 274 273
252 254 255 257 258 260 261 262 264 265 265 266 267 267 268 268 269 269 269 270 270 270 270 271 271 271 272 272 272 273 273 274 274 274 274 274 274 274 274 274 274 274 274 274 275 275 276 277 277 278 278 278 278 278 279 279 279 278 278 278 278 278 278 278 278 278 278 278 278 278 278 278 278 278 278 277 277 277 277 276 276 275 275 274 274 273 273 273
252 255 257 259 261 263 265 265 266 267 268 268 269 270 270 271 271 272 272 273 273 273 273 273 273 274 274 275 275 275 275 275 275 275 275 275 275 275 275 275 275 275 276 276 277 277 278 279 279 279 279 279 279 280 280 279 278 278 278 278 278 278 278 278 278 278 278 278 278 278 278 278 278 278 278 277 277 277 277 276 276 275 275 274 274 273 273 272
254 257 260 262 264 265 266 267 267 268 269 270 272 272 273 274 274 275 275 276 276 276 276 276 276 276 276 277 276 276 276 276 276 276 276 275 275 275 275 275 276 276 277 278 279 279 280 280 280 280 280 280 280 280 279 279 279 279 279 278 278 278 278 278 277 278 278 278 278 278 278 278 278 278 277 277 277 277 277 276 276 275 275 274 274 273 273 273
257 259 262 264 266 267 267 268 269 270 271 273 274 275 276 277 277 277 277 278 278 278 278 278 277 277 277 277 277 277 276 276 276 277 277 276 276 276 276 276 277 278 278 279 280 280 280 280 280 280 280 280 280 280 279 279 279 279 279 279 278 278 278 278 278 278 278 278 278 278 278 278 278 278 278 278 278 277 277 277 276 276 275 275 274 274 274 273
261 263 265 267 268 269 270 272 273 274 275 276 277 278 279 279 279 279 279 279 279 280 280 279 279 279 278 278 278 278 277 277 277 277 277 277 277 277 277 278 279 280 280 281 281 281 281 281 281 281 281 281 280 280 280 280 279 279 279 279 279 278 278 278 278 278 277 277 277 278 278 278 278 278 278 278 278 278 278 277 277 276 276 275 275 275 274 274
267 267 268 270 271 272 273 275 276 278 278 279 281 281 282 282 282 283 283 283 283 283 283 283 282 282 281 280 279 278 278 278 277 277 277 277 278 279 280 281 281 282 282 283 283 283 283 283 282 282 282 282 281 281 281 280 280 280 279 279 279 278 278 278 278 278 277 277 277 278 278 278 279 279 279 280 280 279 279 278 278 278 277 277 277 276 276 275
269 270 271 272 274 275 277 278 280 282 283 284 286 287 288 288 289 289 288 288 287 287 286 286 285 284 282 281 280 279 279 278 278 279 279 280 281 282 283 284 284 285 285 285 285 285 285 285 284 284 284 283 283 282 281 281 280 280 279 279 278 278 277 278 278 278 278 278 278 278 278 278 279 280 280 281 280 280 279 279 279 279 279 279 278 278 277 277
273 274 276 278 279 282 283 285 286 288 289 290 291 291 292 293 292 292 291 289 288 287 286 286 286 285 284 284 283 283 282 282 282 283 283 284 285 285 286 287 287 287 287 287 287 287 287 287 286 286 285 285 284 283 283 282 281 280 279 279 278 278 277 278 278 278 278 278 278 278 278 278 279 280 280 280 280 280 280 280 279 279 279 278 278 278 277 277
282 283 284 286 287 289 290 291 292 292 293 293 293 292 292 291 290 289 289 289 288 288 288 288 288 288 288 288 288 287 287 287 287 287 287 287 287 288 288 289 289 289 289 289 289 288 288 288 287 287 286 285 285 284 284 283 282 281 280 280 279 279 278 278 278 278 278 279 279 279 278 279 281 281 280 280 280 280 280 280 279 279 278 278 277 277 276 276
292 292 293 294 294 294 293 293 293 293 292 291 291 290 289 288 289 290 291 291 291 291 291 291 291 291 291 291 290 290 290 289 289 289 289 289 289 289 289 289 290 290 290 290 290 290 289 289 288 287 286 286 285 285 284 284 283 282 282 281 281 280 280 280 280 280 280 281 281 281 280 281 282 282 282 282 282 282 282 281 281 280 279 278 277 277 276 276
296 297 297 296 295 294 293 292 292 291 291 291 290 290 290 291 292 293 294 294 293 294 293 292 293 293 293 292 292 291 291 290 290 290 290 290 290 290 290 290 291 291 291 291 291 290 290 289 288 288 287 287 286 286 285 285 284 283 283 282 282 282 281 281 281 281 281 281 281 282 282 282 282 282 283 283 283 283 283 282 282 281 280 279 278 278 277 277
299 300 301 300 298 296 295 294 294 293 293 293 293 293 293 294 294 295 294 294 294 293 293 293 294 294 294 294 293 293 292 292 292 291 291 291 291 291 292 292 292 292 292 292 292 291 291 290 290 289 289 288 288 287 287 286 285 284 284 283 283 282 282 282 282 282 282 282 281 282 283 281 281 281 282 283 283 283 282 282 281 280 279 279 278 278 278 278
306 308 310 309 305 302 300 299 299 298 297 297 296 295 295 295 295 294 294 295 294 294 294 295 296 296 296 296 296 295 295 294 294 294 293 293 293 293 293 293 294 294 294 294 293 293 293 292 292 291 291 290 289 289 288 287 286 285 285 284 284 284 283 283 282 282 282 282 282 283 282 281 281 282 282 282 282 282 281 280 279 279 278 278 278 277 277 277
312 312 315 315 311 307 305 304 303 302 301 299 298 297 296 295 295 295 295 296 295 296 297 298 298 298 299 299 298 298 298 298 297 297 297 297 296 296 296 296 296 296 296 296 295 294 294 293 293 292 291 291 290 289 289 288 287 286 286 285 285 285 284 284 284 284 283 283 284 283 282 282 282 282 282 282 281 281 280 279 278 278 278 278 278 277 277 277
315 314 315 316 315 312 310 308 307 305 303 302 301 300 298 297 297 296 296 296 296 297 299 300 300 300 300 300 300 300 301 301 301 301 301 300 300 299 299 298 298 297 297 296 295 295 294 294 293 293 292 292 291 290 289 289 288 287 286 286 285 285 285 285 285 285 284 284 285 284 283 283 283 283 283 282 281 280 279 278 278 278 278 278 278 277 277 278
317 316 315 315 316 315 315 313 311 309 307 306 305 303 301 299 297 297 296 297 298 299 300 301 302 302 302 302 302 303 302 302 302 303 303 302 302 301 300 300 299 298 298 297 296 296 295 294 294 293 293 292 291 291 290 290 289 288 287 287 286 286 286 286 286 286 286 286 285 285 285 285 285 285 284 283 281 280 279 279 279 278 278 278 278 278 278 279
318 318 318 318 318 317 316 315 314 312 310 308 306 304 302 300 299 298 299 300 301 302 302 303 303 304 304 304 304 303 303 303 303 303 303 302 301 301 300 300 299 299 298 297 297 296 295 294 293 293 293 292 292 291 291 290 290 289 288 288 287 287 287 287 288 287 287 287 287 286 286 286 287 287 285 283 282 282 281 281 280 280 280 280 280 280 280 280
318 320 321 321 320 318 316 315 314 313 311 308 306 305 303 302 302 302 302 303 303 304 304 305 305 305 305 305 304 304 303 303 303 303 302 302 301 301 300 299 299 298 298 297 297 296 295 294 293 293 292 292 292 291 291 291 290 290 289 289 289 288 288 289 289 288 288 288 288 288 287 287 288 287 285 284 283 283 283 282 282 281 281 281 281 281 281 281
319 320 320 320 319 317 316 315 314 312 310 308 307 306 305 305 305 305 305 305 305 305 306 306 306 306 306 305 305 304 304 304 303 303 302 302 301 301 300 299 298 298 297 297 296 296 295 294 294 294 293 293 293 292 292 291 291 290 290 290 289 289 289 289 289 289 289 288 288 288 287 288 287 286 285 285 284 283 283 282 282 282 282 282 282 282 282 282
318 318 318 318 317 317 316 315 313 311 310 308 308 308 308 308 307 307 306 306 307 307 307 307 307 306 306 305 305 305 304 304 304 303 303 302 301 300 299 299 298 297 297 296 296 296 295 295 295 295 295 295 294 294 293 292 292 291 291 290 290 290 290 290 289 288 288 288 288 288 287 287 287 286 286 285 284 284 283 283 283 283 283 283 283 283 282 282
317 317 316 316 316 316 315 314 312 310 310 309 309 309 309 308 308 308 308 308 308 308 307 307 307 306 306 305 305 305 305 304 304 304 303 302 301 300 300 299 298 298 297 297 297 297 297 296 295 296 296 296 295 294 294 293 293 292 292 292 292 292 291 291 290 289 289 288 289 289 288 288 287 287 286 286 285 285 285 285 285 285 285 284 284 283 283 282
316 316 316 316 315 315 313 312 310 310 310 310 310 309 309 309 309 309 309 309 308 308 308 307 307 307 306 306 306 305 305 305 304 304 303 302 302 301 301 301 300 300 300 300 299 299 299 298 297 296 297 296 295 295 295 294 294 294 293 293 293 293 292 292 292 291 290 290 290 289 289 289 288 287 287 286 286 286 286 286 286 285 284 284 284 283 283 283
317 317 316 315 314 313 311 311 311 311 311 311 310 310 310 309 309 309 309 309 309 308 308 308 308 308 308 307 307 306 306 305 305 304 304 303 303 303 303 302 302 302 302 301 301 300 300 299 298 297 297 297 296 296 295 295 295 294 294 294 293 293 292 292 292 291 291 290 290 289 289 289 288 288 287 287 287 287 287 287 286 286 285 285 284 284 284 284
317 316 315 313 312 312 311 312 312 312 311 311 311 310 310 310 310 310 309 309 309 308 308 308 308 309 308 308 308 307 307 307 306 306 306 305 305 305 304 304 304 303 303 302 301 300 300 299 298 298 298 298 297 296 296 295 295 294 294 293 293 293 293 293 292 292 291 290 290 289 289 289 289 288 288 288 288 288 288 287 287 287 287 286 286 286 285 285
315 314 313 313 312 312 313 313 313 312 312 311 311 311 311 311 310 310 310 309 309 309 309 309 309 309 309 309 309 308 308 308 308 308 308 307 307 306 306 305 305 304 303 302 302 301 300 299 298 298 298 298 297 296 296 296 295 294 294 294 294 294 294 294 294 293 292 291 290 290 290 289 289 289 289 289 288 288 288 288 288 287 287 287 287 286 286 286
314 313 313 313 313 314 313 313 313 312 312 312 312 311 311 311 311 310 310 310 310 310 310 310 311 311 310 310 310 310 310 310 310 310 309 308 308 307 307 306 306 305 304 303 302 302 301 300 299 299 298 298 297 297 297 297 296 296 296 295 295 295 295 294 294 294 293 293 292 291 290 290 289 289 289 289 289 288 288 288 288 287 287 287 287 286 286 286
314 314 314 314 314 314 314 313 312 312 312 312 312 312 312 311 311 311 311 311 311 311 312 312 312 312 312 312 312 312 312 312 311 311 310 310 309 309 308 308 307 307 306 305 304 303 303 302 301 300 300 300 299 299 299 298 298 297 297 296 296 296 295 295 294 294 294 293 293 292 292 291 290 290 290 290 289 289 289 288 288 287 287 287 286 286 285 285
314 315 315 315 315 314 314 313 313 313 313 313 313 313 312 312 312 312 312 313 313 313 314 314 314 314 314 315 315 314 314 314 313 313 313 312 312 311 311 310 309 308 307 307 306 305 305 304 303 302 301 300 300 300 299 299 298 298 297 296 296 295 295 295 294 294 294 293 293 293 292 292 291 291 290 290 289 289 288 288 288 287 287 286 286 286 285 285
316 316 316 316 315 315 315 315 314 314 314 314 313 313 313 313 313 314 315 315 315 315 316 316 316 317 317 317 317 317 317 317 317 316 316 315 315 314 313 312 311 310 309 308 307 306 305 304 303 303 302 301 301 300 299 298 298 297 297 296 296 295 295 294 294 293 293 293 292 292 292 291 291 290 290 289 289 288 288 288 287 287 287 287 286 286 286 286
317 316 316 316 316 316 315 315 315 315 314 315 315 315 315 316 316 317 318 318 318 318 318 319 320 320 321 321 320 320 320 320 319 319 318 317 316 315 314 313 311 310 309 308 307 306 305 304 303 302 301 301 300 300 299 299 298 297 297 296 296 295 295 294 294 293 293 292 292 291 291 291 291 290 290 290 289 289 288 288 288 288 288 287 287 287 287 287
317 317 317 317 317 316 316 316 316 316 316 317 318 318 319 319 320 320 321 321 321 322 323 323 324 324 324 324 323 323 322 322 321 319 318 317 316 314 313 312 310 309 308 307 306 305 304 303 302 301 300 299 299 298 298 297 297 297 296 296 296 295 295 294 294 293 293 292 292 292 292 292 291 291 291 290 290 290 289 289 289 289 288 288 288 287 287 287
319 318 318 317 317 317 317 318 319 320 321 321 322 322 323 323 323 324 324 325 326 326 327 327 328 328 327 326 325 324 323 322 321 320 318 317 315 314 313 311 310 309 308 307 306 305 304 303 303 302 301 300 299 298 298 297 296 296 296 296 295 295 295 295 294 294 294 294 294 294 293 293 293 292 292 291 291 291 290 290 290 290 289 289 289 289 289 289
319 318 318 319 320 320 322 323 324 325 325 326 326 327 327 327 328 328 329 329 330 330 331 331 330 329 328 327 326 325 324 323 322 321 319 318 316 315 313 312 311 309 308 307 306 306 305 304 304 303 302 302 301 301 300 299 298 298 297 297 296 296 296 296 296 295 295 295 295 295 295 294 294 294 293 293 292 292 292 291 291 291 291 291 291 292 292 292
320 320 322 323 325 326 327 328 329 330 331 331 331 331 331 332 332 332 333 333 333 333 333 332 331 330 329 329 328 327 326 325 324 322 320 319 317 316 314 313 311 310 309 308 308 307 306 306 305 305 304 304 303 303 302 302 301 301 301 300 299 299 298 298 297 297 297 296 296 296 295 295 295 295 294 294 294 293 293 293 293 293 293 293 293 293 293 293
324 326 328 330 331 332 333 334 335 335 335 335 335 334 335 335 335 335 335 335 335 334 334 334 333 333 332 331 330 328 327 325 324 323 321 320 318 317 315 314 313 312 311 310 309 309 308 308 308 307 307 306 306 305 305 304 304 304 303 303 302 302 301 300 300 299 299 298 298 298 297 297 296 296 296 295 295 295 294 294 295 294 294 294 294 294 295 295
331 333 335 336 337 338 338 339 339 338 338 338 338 337 337 337 337 338 338 337 337 337 337 337 336 335 333 332 331 329 328 327 325 324 322 321 319 318 317 316 315 315 314 313 312 312 312 311 310 310 309 309 308 308 307 307 307 307 306 306 305 305 304 303 302 302 301 300 300 300 299 299 299 298 298 297 297 297 297 297 297 296 296 296 296 296 296 296
338 340 341 341 341 342 341 341 341 341 341 341 340 340 340 340 340 341 340 340 340 340 339 338 336 335 334 333 332 331 330 329 327 326 324 323 322 321 320 319 318 318 317 316 316 315 315 315 314 314 313 313 312 311 311 311 310 309 309 309 308 307 306 306 305 304 303 302 302 301 301 300 300 300 299 299 299 298 298 298 298 298 298 298 298 298 298 298
344 344 344 344 344 344 344 343 343 343 343 343 343 344 344 344 344 344 343 343 342 340 339 338 337 336 335 334 334 333 332 331 330 329 327 326 325 324 323 322 322 321 321 321 320 320 319 319 318 317 316 315 314 314 313 313 312 312 311 311 310 309 308 307 306 305 304 304 304 303 302 302 301 300 300 300 299 299 299 299 299 299 299 299 299 299 299 299
Height
10733 10734 10736 10737 10738 10739 10741 10743 10744 10745 10746 10747 10748 10748 10749 10749 10750 10750 10750 10751 10751 10751 10752 10752 10752 10753 10753 10753 10753 10753 10753 10753 10753 10753 10753 10752 10752 10752 10751 10751 10750 10750 10749 10748 10747 10746 10746 10745 10744 10743 10743 10741 10741 10740 10739 10739 10738 10737 10736 10735 10730 10728 10728 10728 10728 10727 10725 10721 10717 10715 10714 10712 10709 10708 10707 10706 10703 10700 10699 10698 10700 10704 10704 10704 10701 10696 10692 10689
10730 10732 10734 10735 10736 10737 10738 10740 10741 10741 10742 10744 10745 10746 10746 10747 10747 10748 10748 10748 10748 10748 10749 10749 10749 10749 10749 10749 10749 10749 10749 10749 10749 10749 10748 10748 10747 10747 10746 10746 10745 10744 10743 10743 10741 10740 10739 10739 10738 10737 10736 10735 10734 10733 10732 10732 10732 10730 10729 10727 10722 10721 10721 10720 10720 10719 10717 10714 10710 10707 10705 10703 10701 10700 10698 10697 10694 10692 10690 10690 10695 10697 10695 10695 10691 10686 10682 10681
10728 10730 10731 10733 10734 10735 10736 10737 10737 10738 10739 10740 10742 10742 10743 10744 10744 10745 10745 10745 10745 10745 10746 10746 10746 10746 10746 10746 10745 10745 10745 10745 10745 10745 10744 10743 10743 10742 10742 10741 10740 10739 10738 10737 10736 10734 10733 10732 10731 10731 10730 10728 10727 10726 10726 10725 10725 10724 10721 10718 10715 10715 10714 10712 10713 10712 10709 10706 10703 10699 10696 10694 10692 10690 10689 10689 10686 10684 10682 10682 10686 10687 10686 10686 10682 10676 10674 10672
10726 10727 10728 10730 10731 10733 10734 10735 10735 10736 10737 10737 10738 10739 10739 10740 10741 10741 10742 10742 10742 10742 10742 10742 10742 10742 10742 10742 10741 10741 10741 10741 10741 10740 10739 10739 10738 10737 10737 10736 10735 10734 10732 10731 10730 10729 10727 10726 10725 10724 10723 10721 10720 10720 10719 10718 10717 10716 10713 10710 10708 10708 10706 10704 10705 10704 10701 10698 10695 10692 10688 10685 10683 10681 10680 10681 10680 10677 10674 10673 10675 10676 10676 10677 10673 10668 10664 10661
10723 10724 10725 10727 10728 10730 10731 10732 10732 10733 10734 10734 10735 10735 10735 10736 10737 10737 10737 10738 10738 10738 10738 10738 10738 10738 10738 10737 10737 10736 10736 10735 10735 10735 10735 10734 10733 10732 10731 10730 10729 10727 10727 10725 10724 10723 10721 10720 10718 10717 10716 10715 10713 10712 10712 10711 10710 10709 10705 10702 10702 10700 10697 10696 10696 10695 10693 10690 10687 10683 10680 10676 10674 10672 10671 10673 10672 10669 10665 10662 10663 10665 10665 10665 10663 10659 10655 10651
10720 10722 10723 10724 10725 10727 10728 10729 10729 10730 10731 10731 10732 10732 10732 10732 10733 10733 10733 10734 10734 10734 10734 10734 10734 10734 10734 10733 10733 10732 10731 10730 10729 10729 10729 10728 10728 10726 10725 10723 10722 10721 10720 10719 10718 10716 10715 10713 10712 10710 10709 10707 10706 10705 10704 10703 10702 10701 10696 10693 10694 10692 10689 10686 10685 10684 10682 10680 10677 10674 10670 10667 10665 10663 10663 10664 10663 10660 10656 10652 10652 10653 10653 10652 10650 10647 10645 10642
10717 10719 10720 10721 10722 10723 10724 10725 10726 10726 10727 10728 10728 10728 10729 10729 10729 10729 10730 10730 10730 10730 10730 10730 10730 10729 10729 10728 10728 10727 10726 10725 10724 10723 10723 10722 10721 10720 10718 10717 10716 10715 10713 10712 10710 10709 10707 10705 10704 10702 10701 10699 10698 10696 10695 10694 10694 10692 10688 10684 10685 10683 10680 10677 10674 10673 10671 10669 10667 10664 10661 10659 10656 10655 10654 10653 10652 10649 10646 10643 10640 10640 10640 10639 10637 10635 10634 10632
10715 10716 10717 10718 10719 10720 10720 10721 10722 10723 10723 10724 10724 10724 10725 10725 10725 10725 10725 10725 10725 10726 10725 10725 10725 10724 10724 10723 10723 10721 10720 10720 10718 10718 10717 10716 10714 10713 10712 10710 10709 10708 10706 10705 10703 10702 10700 10698 10696 10695 10693 10691 10689 10688 10686 10686 10685 10683 10679 10676 10674 10673 10670 10668 10664 10661 10658 10657 10655 10653 10651 10650 10648 10646 10645 10643 10640 10639 10636 10633 10631 10629 10627 10626 10624 10622 10622 10621
10712 10713 10714 10715 10716 10716 10717 10717 10718 10718 10719 10719 10719 10719 10720 10720 10720 10720 10720 10720 10720 10720 10720 10720 10719 10719 10718 10718 10717 10716 10714 10713 10713 10712 10711 10709 10708 10706 10705 10704 10702 10701 10699 10697 10695 10694 10692 10689 10688 10686 10685 10682 10680 10678 10677 10677 10676 10673 10671 10668 10664 10662 10660 10657 10653 10649 10646 10644 10642 10641 10641 10640 10637 10635 10633 10632 10630 10628 10626 10623 10621 10618 10614 10612 10610 10609 10609 10609
10709 10710 10711 10712 10712 10713 10713 10714 10714 10714 10715 10715 10715 10715 10715 10715 10715 10715 10715 10715 10715 10715 10715 10714 10714 10713 10712 10711 10710 10710 10708 10707 10706 10705 10703 10702 10701 10699 10698 10696 10695 10693 10691 10689 10687 10684 10682 10680 10678 10677 10675 10673 10670 10669 10668 10667 10666 10663 10661 10658 10654 10651 10648 10645 10642 10638 10635 10633 10630 10629 10629 10628 10625 10623 10621 10620 10618 10617 10614 10612 10609 10606 10602 10599 10597 10595 10595 10595
10707 10707 10708 10709 10709 10710 10710 10710 10710 10711 10711 10711 10711 10710 10710 10710 10710 10710 10710 10709 10709 10709 10708 10708 10707 10707 10706 10705 10704 10703 10701 10700 10699 10697 10696 10694 10693 10692 10690 10688 10686 10685 10683 10680 10678 10675 10672 10670 10668 10667 10665 10663 10660 10658 10657 10656 10655 10653 10650 10647 10643 10639 10636 10632 10629 10627 10624 10621 10619 10617 10616 10615 10613 10611 10609 10608 10606 10604 10601 10599 10597 10594 10590 10587 10584 10583 10581 10581
10704 10705 10705 10706 10706 10706 10706 10706 10707 10707 10707 10706 10706 10706 10706 10706 10705 10705 10704 10704 10703 10703 10702 10701 10701 10700 10699 10698 10697 10695 10694 10692 10691 10689 10688 10687 10685 10684 10682 10680 10678 10676 10673 10671 10668 10666 10663 10660 10658 10657 10655 10653 10650 10648 10647 10645 10643 10641 10638 10635 10631 10626 10622 10619 10616 10614 10612 10610 10608 10606 10604 10603 10601 10598 10597 10595 10593 10590 10588 10586 10584 10581 10578 10575 10573 10571 10569 10568
10702 10702 10702 10702 10703 10703 10703 10703 10703 10703 10703 10702 10702 10702 10701 10701 10701 10700 10700 10699 10698 10697 10696 10695 10694 10693 10692 10691 10690 10688 10686 10685 10683 10682 10680 10679 10677 10675 10673 10671 10669 10667 10664 10662 10659 10656 10654 10652 10649 10647 10645 10643 10640 10637 10636 10634 10632 10630 10626 10623 10618 10613 10609 10607 10605 10602 10600 10597 10596 10595 10593 10592 10589 10586 10585 10582 10580 10577 10575 10573 10571 10569 10567 10564 10561 10559 10558 10556
10699 10700 10700 10700 10700 10699 10699 10699 10699 10699 10699 10699 10698 10698 10697 10697 10696 10696 10695 10694 10693 10692 10691 10690 10689 10687 10686 10685 10683 10681 10680 10678 10677 10675 10673 10671 10669 10667 10665 10662 10660 10658 10655 10652 10649 10647 10645 10643 10641 10638 10635 10633 10630 10627 10626 10625 10622 10618 10614 10611 10607 10602 10598 10596 10593 10590 10588 10585 10584 10582 10580 10580 10578 10575 10573 10570 10568 10565 10563 10561 10559 10557 10555 10552 10550 10548 10546 10544
10697 10697 10697 10697 10697 10697 10697 10696 10696 10696 10696 10695 10695 10694 10693 10693 10692 10691 10691 10690 10688 10687 10686 10685 10683 10682 10680 10679 10677 10676 10674 10672 10670 10668 10666 10664 10662 10660 10657 10654 10652 10650 10647 10644 10641 10639 10636 10634 10632 10629 10626 10623 10620 10619 10617 10615 10611 10605 10602 10600 10597 10592 10589 10585 10581 10578 10577 10574 10572 10570 10569 10568 10566 10563 10561 10558 10556 10553 10551 10550 10547 10545 10542 10540 10538 10536 10534 10532
10695 10695 10695 10695 10695 10694 10694 10694 10693 10693 10692 10692 10691 10691 10690 10689 10688 10687 10686 10685 10684 10682 10681 10680 10678 10676 10675 10673 10671 10670 10668 10665 10663 10660 10658 10656 10654 10652 10650 10647 10644 10642 10639 10636 10633 10631 10629 10626 10622 10619 10616 10613 10611 10610 10608 10605 10599 10594 10592 10590 10586 10582 10578 10574 10572 10569 10566 10563 10561 10559 10558 10557 10554 10551 10549 10547 10545 10543 10541 10539 10537 10534 10531 10529 10527 10524 10522 10521
10693 10693 10693 10692 10692 10692 10691 10691 10691 10690 10689 10689 10688 10687 10686 10685 10684 10683 10682 10680 10679 10677 10676 10674 10672 10671 10669 10667 10665 10663 10661 10658 10656 10654 10651 10649 10647 10645 10642 10640 10636 10634 10632 10629 10626 10623 10620 10617 10613 10610 10606 10603 10602 10600 10598 10594 10589 10585 10582 10579 10575 10571 10567 10563 10562 10560 10557 10553 10550 10548 10546 10545 10543 10540 10538 10536 10535 10533 10530 10528 10526 10524 10521 10518 10516 10514 10512 10510
10691 10691 10690 10690 10690 10689 10689 10689 10688 10687 10687 10686 10685 10684 10683 10682 10680 10679 10678 10676 10674 10672 10670 10669 10667 10665 10664 10661 10659 10657 10655 10652 10650 10647 10645 10642 10640 10637 10634 10632 10629 10626 10624 10622 10618 10615 10611 10608 10604 10600 10597 10595 10592 10589 10587 10584 10580 10576 10572 10568 10564 10561 10556 10553 10551 10550 10547 10544 10541 10538 10535 10534 10532 10529 10527 10526 10525 10523 10520 10518 10516 10514 10511 10508 10506 10504 10502 10501
10689 10689 10688 10688 10688 10687 10687 10686 10686 10685 10684 10683 10682 10681 10679 10678 10677 10675 10674 10672 10670 10668 10666 10664 10662 10660 10658 10656 10653 10651 10648 10646 10643 10641 10638 10635 10632 10630 10627 10625 10622 10619 10616 10613 10610 10606 10603 10599 10594 10591 10589 10585 10582 10579 10577 10574 10570 10566 10562 10558 10554 10550 10546 10543 10541 10540 10537 10534 10532 10529 10526 10524 10521 10519 10518 10517 10516 10514 10511 10508 10505 10503 10500 10498 10496 10495 10493 10491
10687 10686 10686 10686 10685 10685 10684 10684 10683 10682 10681 10680 10679 10677 10676 10674 10673 10671 10669 10668 10666 10663 10661 10659 10657 10654 10652 10650 10647 10645 10642 10639 10637 10634 10631 10628 10625 10623 10620 10617 10615 10611 10608 10604 10601 10597 10594 10590 10585 10582 10579 10575 10572 10570 10567 10563 10560 10557 10553 10549 10545 10540 10536 10534 10533 10530 10526 10524 10524 10522 10518 10515 10512 10511 10510 10509 10507 10505 10501 10498 10495 10493 10490 10488 10486 10484 10482 10480
10685 10684 10683 10683 10682 10682 10681 10681 10680 10679 10678 10677 10675 10674 10672 10670 10668 10666 10664 10663 10660 10658 10655 10653 10651 10648 10645 10643 10640 10638 10635 10632 10630 10627 10624 10622 10619 10615 10612 10609 10606 10603 10599 10596 10592 10588 10584 10580 10576 10573 10569 10565 10562 10560 10557 10554 10551 10547 10543 10539 10535 10531 10528 10526 10524 10521 10517 10515 10515 10513 10510 10507 10506 10504 10503 10501 10499 10496 10493 10490 10487 10484 10481 10478 10476 10473 10471 10468
10682 10681 10681 10680 10680 10679 10678 10677 10677 10675 10674 10673 10671 10670 10668 10666 10664 10662 10659 10657 10655 10652 10650 10647 10645 10642 10639 10636 10634 10632 10629 10626 10623 10620 10617 10615 10611 10608 10604 10601 10597 10594 10590 10587 10583 10579 10575 10571 10567 10563 10559 10555 10552 10549 10547 10544 10541 10537 10534 10530 10527 10523 10520 10519 10517 10513 10510 10507 10506 10504 10501 10500 10500 10498 10496 10493 10490 10487 10485 10482 10479 10476 10473 10470 10466 10463 10460 10457
10680 10679 10679 10678 10677 10676 10675 10674 10673 10672 10670 10669 10667 10666 10664 10662 10660 10657 10655 10652 10650 10647 10645 10642 10639 10636 10633 10631 10628 10625 10622 10619 10616 10613 10610 10607 10603 10600 10596 10592 10588 10585 10581 10577 10574 10570 10566 10562 10558 10554 10550 10546 10543 10540 10537 10535 10532 10528 10525 10522 10519 10515 10513 10512 10509 10505 10502 10500 10498 10495 10492 10494 10494 10490 10487 10485 10482 10480 10477 10474 10471 10467 10464 10460 10457 10453 10450 10446
10678 10677 10676 10675 10674 10673 10672 10671 10670 10668 10667 10665 10663 10662 10660 10657 10655 10653 10650 10647 10645 10642 10640 10636 10633 10630 10628 10625 10622 10619 10615 10612 10609 10605 10602 10599 10595 10592 10588 10584 10580 10576 10572 10568 10565 10560 10556 10553 10549 10545 10541 10538 10534 10531 10529 10526 10523 10520 10517 10514 10511 10508 10505 10503 10501 10498 10495 10493 10490 10485 10485 10487 10486 10481 10478 10476 10474 10472 10469 10465 10461 10457 10454 10449 10446 10442 10438 10436
10676 10675 10674 10673 10672 10670 10669 10667 10666 10664 10663 10661 10659 10657 10655 10653 10650 10648 10645 10642 10639 10637 10634 10631 10628 10625 10622 10618 10615 10612 10609 10605 10602 10598 10594 10591 10587 10583 10579 10575 10571 10567 10563 10559 10556 10551 10547 10544 10540 10536 10533 10530 10527 10524 10522 10519 10516 10513 10509 10507 10504 10501 10498 10496 10493 10490 10488 10487 10483 10478 10477 10479 10478 10473 10470 10468 10466 10463 10459 10455 10451 10447 10443 10438 10434 10431 10428 10425
10674 10673 10672 10670 10668 10667 10665 10664 10662 10660 10659 10657 10654 10652 10650 10648 10646 10643 10640 10636 10633 10631 10628 10625 10622 10619 10615 10612 10608 10605 10602 10598 10594 10590 10586 10582 10578 10575 10571 10566 10562 10558 10554 10551 10547 10543 10539 10536 10532 10529 10526 10523 10520 10518 10515 10512 10510 10506 10502 10500 10497 10494 10491 10489 10486 10482 10481 10479 10476 10472 10468 10468 10470 10467 10464 10461 10458 10455 10450 10445 10441 10436 10432 10428 10424 10421 10418 10415
10671 10670 10669 10667 10665 10663 10662 10660 10658 10656 10655 10652 10650 10648 10646 10643 10640 10637 10634 10631 10627 10624 10621 10619 10616 10612 10609 10605 10601 10597 10594 10590 10586 10581 10577 10573 10569 10566 10562 10558 10554 10550 10547 10544 10539 10535 10532 10529 10525 10523 10520 10517 10514 10511 10508 10505 10503 10499 10496 10492 10489 10486 10483 10481 10478 10475 10473 10470 10469 10466 10458 10456 10460 10462 10458 10454 10450 10446 10441 10435 10431 10426 10421 10418 10414 10411 10408 10404
10669 10667 10666 10664 10662 10660 10659 10657 10655 10653 10651 10648 10646 10643 10640 10638 10635 10632 10629 10625 10621 10618 10615 10612 10609 10606 10602 10598 10593 10589 10585 10582 10578 10573 10569 10565 10561 10558 10554 10551 10547 10543 10540 10538 10534 10529 10526 10522 10519 10516 10513 10510 10507 10504 10501 10498 10495 10492 10488 10485 10481 10478 10475 10472 10469 10466 10463 10462 10461 10456 10448 10446 10450 10453 10450 10446 10442 10436 10431 10425 10420 10415 10411 10407 10404 10400 10397 10393
10666 10664 10663 10661 10659 10657 10656 10654 10651 10649 10646 10643 10641 10638 10635 10632 10629 10626 10623 10619 10615 10612 10609 10606 10602 10599 10595 10591 10586 10582 10578 10574 10570 10566 10562 10558 10555 10551 10548 10545 10541 10537 10534 10531 10528 10524 10520 10516 10512 10509 10506 10503 10500 10496 10493 10490 10487 10484 10480 10476 10473 10469 10466 10463 10460 10457 10453 10453 10452 10444 10438 10436 10439 10443 10440 10435 10431 10426 10420 10414 10409 10405 10401 10397 10393 10389 10385 10382
10663 10661 10660 10658 10656 10654 10651 10649 10647 10644 10641 10638 10635 10632 10629 10626 10623 10620 10617 10613 10610 10606 10602 10599 10595 10591 10587 10584 10580 10575 10571 10567 10564 10560 10556 10552 10548 10545 10542 10539 10535 10531 10528 10524 10521 10517 10513 10509 10505 10502 10499 10495 10492 10488 10485 10481 10478 10475 10471 10467 10464 10461 10458 10454 10452 10447 10443 10443 10441 10433 10429 10425 10426 10431 10429 10422 10417 10413 10408 10404 10399 10394 10390 10386 10382 10378 10375 10371
10659 10658 10656 10654 10652 10649 10647 10644 10642 10639 10636 10633 10630 10626 10623 10620 10617 10615 10611 10607 10603 10599 10595 10592 10589 10584 10580 10576 10572 10569 10565 10561 10557 10554 10550 10546 10542 10539 10535 10532 10528 10525 10521 10517 10513 10509 10505 10501 10497 10494 10491 10487 10483 10479 10476 10473 10469 10465 10461 10457 10454 10451 10448 10446 10443 10437 10433 10432 10430 10424 10419 10415 10414 10417 10415 10408 10404 10399 10395 10392 10387 10382 10378 10374 10371 10367 10363 10360
10656 10654 10652 10649 10647 10645 10642 10639 10636 10633 10630 10627 10624 10620 10617 10614 10611 10608 10604 10601 10597 10592 10588 10585 10581 10578 10574 10569 10566 10562 10559 10555 10551 10547 10543 10540 10536 10532 10529 10525 10522 10518 10514 10510 10505 10501 10496 10493 10490 10487 10483 10479 10475 10472 10468 10464 10460 10456 10452 10448 10445 10442 10439 10438 10434 10429 10425 10422 10419 10414 10409 10406 10404 10403 10399 10396 10392 10388 10384 10380 10375 10370 10366 10363 10359 10356 10352 10348
10652 10650 10648 10645 10643 10640 10637 10634 10631 10628 10624 10621 10618 10614 10611 10608 10604 10601 10598 10594 10591 10586 10582 10578 10575 10570 10567 10563 10559 10556 10552 10548 10544 10540 10537 10533 10529 10525 10522 10518 10515 10511 10507 10503 10499 10494 10488 10483 10480 10478 10475 10471 10468 10464 10459 10455 10451 10448 10444 10439 10435 10432 10430 10430 10426 10420 10417 10413 10410 10406 10400 10397 10394 10389 10386 10384 10380 10377 10373 10369 10364 10360 10356 10352 10349 10345 10341 10337
10648 10646 10643 10641 10638 10635 10632 10629 10626 10622 10619 10615 10612 10608 10605 10602 10598 10595 10591 10588 10584 10580 10576 10572 10568 10564 10560 10557 10553 10549 10545 10541 10537 10533 10529 10526 10522 10518 10515 10511 10508 10504 10500 10496 10493 10488 10481 10475 10472 10469 10466 10463 10459 10454 10450 10446 10443 10439 10435 10431 10427 10422 10420 10420 10417 10413 10408 10404 10401 10397 10391 10388 10384 10379 10375 10371 10368 10365 10362 10358 10354 10351 10347 10342 10338 10334 10330 10325
10644 10641 10639 10636 10633 10630 10627 10623 10620 10617 10613 10610 10606 10603 10599 10596 10592 10588 10585 10581 10577 10574 10570 10566 10562 10558 10554 10551 10547 10543 10539 10535 10530 10527 10522 10518 10514 10511 10507 10503 10500 10496 10493 10489 10485 10482 10475 10468 10464 10462 10458 10455 10451 10446 10442 10438 10434 10430 10426 10422 10418 10414 10410 10409 10407 10403 10399 10396 10393 10388 10382 10378 10374 10370 10365 10360 10357 10354 10351 10348 10344 10340 10337 10332 10327 10322 10318 10313
10640 10637 10634 10631 10628 10625 10621 10618 10614 10611 10608 10604 10600 10597 10593 10590 10586 10583 10579 10575 10571 10567 10563 10559 10556 10552 10547 10544 10541 10536 10532 10528 10524 10520 10516 10511 10507 10503 10500 10496 10492 10488 10485 10481 10478 10475 10470 10460 10455 10454 10451 10447 10443 10438 10434 10430 10425 10422 10418 10414 10410 10405 10401 10398 10396 10393 10389 10387 10385 10379 10373 10368 10363 10360 10355 10349 10346 10343 10339 10337 10333 10329 10325 10321 10316 10311 10306 10301
10635 10632 10629 10626 10623 10619 10616 10612 10609 10605 10602 10598 10595 10591 10588 10584 10580 10577 10573 10569 10565 10561 10557 10553 10549 10545 10541 10537 10533 10529 10525 10521 10517 10513 10509 10505 10500 10496 10493 10489 10485 10481 10478 10474 10470 10467 10464 10455 10447 10446 10444 10439 10435 10431 10427 10422 10418 10414 10410 10406 10402 10397 10393 10389 10386 10384 10380 10377 10375 10371 10366 10359 10353 10348 10345 10340 10335 10332 10328 10325 10321 10316 10312 10307 10303 10299 10294 10289
10630 10627 10624 10621 10618 10614 10610 10607 10603 10600 10596 10593 10589 10585 10582 10578 10574 10571 10567 10563 10559 10555 10551 10547 10543 10539 10535 10530 10526 10522 10518 10514 10510 10506 10502 10498 10494 10489 10486 10482 10478 10475 10470 10467 10463 10459 10457 10451 10441 10437 10436 10432 10426 10423 10419 10414 10411 10406 10402 10398 10393 10389 10385 10380 10376 10373 10370 10367 10365 10362 10357 10350 10342 10337 10333 10330 10325 10320 10316 10312 10308 10303 10298 10293 10288 10284 10280 10276
10626 10623 10619 10616 10612 10609 10605 10601 10598 10594 10590 10587 10583 10580 10576 10572 10568 10565 10561 10557 10554 10549 10546 10541 10537 10533 10529 10525 10520 10516 10512 10508 10504 10500 10495 10491 10487 10483 10479 10476 10472 10468 10464 10460 10456 10452 10449 10445 10437 10430 10429 10425 10419 10415 10412 10406 10402 10398 10394 10389 10385 10381 10377 10372 10366 10361 10358 10355 10352 10351 10349 10341 10332 10327 10323 10318 10314 10309 10304 10299 10295 10291 10286 10280 10275 10270 10265 10261
10621 10618 10614 10611 10607 10604 10600 10596 10593 10589 10585 10582 10578 10574 10570 10567 10563 10559 10555 10551 10548 10544 10539 10535 10531 10527 10523 10519 10514 10510 10506 10502 10498 10494 10489 10485 10481 10477 10473 10469 10465 10461 10457 10453 10449 10445 10441 10438 10432 10424 10420 10417 10412 10408 10404 10399 10394 10389 10384 10380 10376 10371 10367 10364 10358 10351 10346 10342 10337 10337 10338 10332 10321 10316 10313 10307 10302 10297 10292 10286 10282 10277 10272 10267 10261 10256 10250 10245
10617 10613 10610 10606 10602 10599 10595 10591 10588 10584 10580 10577 10573 10569 10565 10561 10558 10554 10550 10546 10542 10538 10533 10529 10525 10521 10517 10513 10509 10504 10500 10496 10492 10488 10484 10480 10476 10472 10467 10463 10458 10454 10450 10445 10442 10438 10434 10430 10425 10419 10413 10409 10404 10399 10395 10390 10385 10380 10375 10371 10367 10362 10357 10353 10349 10342 10335 10330 10324 10321 10322 10319 10310 10304 10300 10295 10289 10284 10278 10272 10267 10262 10258 10253 10247 10241 10235 10230
10612 10608 10605 10601 10598 10594 10591 10587 10583 10579 10575 10571 10568 10564 10560 10556 10552 10548 10544 10540 10536 10532 10528 10524 10520 10516 10512 10508 10503 10499 10495 10491 10487 10483 10478 10474 10470 10466 10461 10457 10452 10447 10443 10438 10434 10431 10427 10422 10417 10412 10407 10402 10397 10392 10387 10381 10377 10371 10366 10362 10358 10352 10347 10342 10338 10333 10326 10319 10312 10307 10306 10304 10297 10292 10287 10281 10275 10270 10264 10257 10251 10247 10242 10237 10231 10224 10219 10214
10608 10604 10600 10596 10593 10589 10586 10582 10578 10574 10570 10566 10563 10559 10555 10551 10547 10543 10539 10535 10531 10527 10523 10520 10516 10512 10507 10503 10499 10494 10490 10485 10481 10477 10473 10468 10463 10459 10454 10450 10445 10441 10436 10431 10427 10423 10419 10415 10410 10404 10398 10393 10388 10384 10378 10372 10368 10363 10356 10351 10347 10342 10336 10331 10326 10321 10316 10309 10301 10295 10292 10288 10284 10279 10273 10266 10260 10255 10249 10242 10236 10230 10225 10219 10212 10206 10201 10196
10603 10600 10596 10592 10589 10585 10581 10577 10573 10569 10566 10562 10558 10554 10550 10546 10542 10538 10535 10531 10527 10523 10519 10515 10512 10507 10503 10499 10494 10490 10485 10481 10476 10472 10467 10463 10458 10453 10448 10443 10438 10434 10429 10424 10419 10415 10410 10406 10402 10398 10391 10385 10379 10374 10367 10360 10355 10351 10346 10340 10335 10329 10324 10318 10313 10307 10302 10297 10289 10283 10279 10274 10269 10264 10258 10251 10244 10238 10232 10226 10220 10214 10209 10202 10195 10188 10183 10177
10599 10596 10592 10588 10585 10581 10577 10573 10569 10565 10561 10557 10553 10549 10545 10542 10538 10535 10531 10527 10523 10519 10515 10511 10508 10503 10499 10494 10490 10485 10480 10476 10472 10467 10462 10458 10452 10447 10442 10437 10431 10426 10421 10416 10411 10406 10401 10396 10392 10388 10383 10378 10372 10367 10361 10353 10346 10340 10334 10329 10323 10317 10311 10305 10300 10293 10288 10283 10276 10270 10265 10260 10254 10249 10243 10236 10230 10223 10216 10210 10204 10198 10193 10186 10179 10173 10167 10161
10596 10592 10588 10585 10581 10577 10573 10569 10565 10561 10557 10553 10549 10546 10542 10538 10535 10531 10528 10524 10520 10516 10512 10508 10504 10499 10495 10490 10485 10481 10476 10471 10466 10461 10456 10452 10446 10440 10435 10429 10424 10418 10413 10407 10402 10397 10391 10386 10380 10375 10370 10365 10360 10355 10350 10345 10338 10331 10325 10319 10313 10307 10300 10293 10287 10280 10274 10269 10263 10256 10250 10245 10239 10233 10227 10221 10215 10208 10201 10194 10188 10182 10176 10169 10162 10157 10151 10145
10592 10588 10585 10581 10577 10573 10569 10565 10561 10557 10553 10550 10546 10542 10539 10535 10532 10528 10524 10520 10517 10513 10509 10504 10500 10495 10490 10485 10480 10475 10470 10465 10460 10455 10449 10444 10438 10432 10426 10421 10415 10410 10404 10398 10392 10387 10382 10376 10370 10364 10359 10353 10347 10342 10336 10331 10326 10320 10315 10309 10303 10296 10290 10283 10276 10269 10262 10257 10251 10244 10237 10230 10225 10218 10212 10206 10199 10192 10185 10179 10173 10167 10160 10153 10147 10141 10135 10129
10589 10585 10581 10577 10573 10569 10566 10562 10558 10554 10551 10547 10543 10540 10536 10533 10529 10525 10522 10518 10514 10510 10506 10501 10497 10492 10487 10481 10475 10469 10463 10458 10452 10446 10440 10434 10429 10423 10417 10412 10406 10400 10395 10389 10383 10378 10373 10366 10360 10355 10349 10343 10337 10331 10325 10319 10313 10308 10302 10297 10291 10285 10279 10272 10265 10258 10251 10244 10239 10233 10226 10218 10212 10205 10198 10192 10185 10178 10170 10164 10158 10152 10145 10138 10132 10127 10120 10114
10586 10582 10578 10574 10570 10566 10563 10559 10555 10552 10548 10545 10541 10537 10534 10530 10526 10523 10519 10515 10511 10507 10503 10498 10493 10488 10482 10477 10471 10465 10458 10452 10445 10439 10433 10426 10420 10414 10408 10403 10397 10392 10386 10381 10375 10370 10364 10358 10352 10346 10340 10334 10328 10321 10315 10309 10303 10297 10291 10285 10279 10273 10267 10260 10253 10246 10239 10231 10226 10220 10213 10206 10199 10192 10185 10178 10171 10164 10157 10151 10145 10138 10131 10125 10119 10113 10107 10100
10583 10579 10575 10571 10568 10564 10560 10557 10553 10550 10547 10543 10539 10535 10531 10528 10524 10520 10517 10513 10508 10504 10499 10494 10489 10483 10478 10472 10466 10459 10453 10447 10440 10434 10427 10420 10414 10408 10401 10395 10390 10384 10378 10373 10367 10362 10357 10351 10344 10338 10333 10326 10319 10313 10306 10299 10293 10287 10281 10275 10268 10262 10255 10248 10242 10235 10227 10219 10212 10206 10200 10192 10186 10179 10171 10164 10157 10150 10143 10137 10131 10123 10117 10111 10104 10098 10092 10086
10580 10576 10573 10569 10566 10562 10559 10555 10552 10548 10545 10541 10537 10534 10530 10526 10522 10518 10514 10510 10505 10500 10495 10490 10485 10479 10473 10467 10460 10454 10447 10441 10434 10427 10421 10414 10408 10402 10395 10389 10383 10377 10371 10366 10360 10354 10349 10343 10336 10330 10324 10317 10311 10304 10297 10291 10284 10277 10271 10265 10258 10251 10244 10236 10229 10223 10215 10208 10202 10195 10187 10180 10173 10166 10158 10150 10143 10137 10130 10124 10117 10110 10103 10097 10091 10085 10079 10072
10578 10575 10571 10568 10564 10561 10557 10554 10550 10547 10543 10540 10536 10532 10528 10524 10520 10516 10511 10506 10502 10497 10492 10487 10481 10475 10468 10462 10455 10448 10441 10434 10428 10421 10414 10408 10402 10396 10390 10384 10378 10372 10366 10360 10354 10348 10342 10336 10329 10323 10316 10310 10303 10296 10289 10282 10276 10269 10262 10255 10248 10241 10234 10225 10217 10209 10202 10197 10192 10185 10177 10170 10163 10155 10148 10140 10132 10124 10118 10112 10106 10099 10092 10086 10079 10073 10066 10059